,,,PA_Meas_PMT16A,,PR_Meas_QMR101_102,,RH_Meas_QMH101,,SR_Meas_QMS101,,TA_Meas_QMH101,,GenWind,,GenWind,
date,time,status,PA,status,PR,status,RH,status,SR,status,TA,status,DirAvg,status,SpdAvg,
2014-08-26, 00:00:04,VALID,1010.32,VALID,0,INVALID,114.844,VALID,0,VALID,23.4797,VALID,88,VALID,0,
2014-08-26, 00:01:04,VALID,1010.35,VALID,0,INVALID,114.836,VALID,0,VALID,23.4797,VALID,88,VALID,0,
2014-08-26, 00:02:04,VALID,1010.33,VALID,0,INVALID,115.012,VALID,0,VALID,23.4407,VALID,88,VALID,0,
2014-08-26, 00:03:05,VALID,1010.33,VALID,0,INVALID,115.012,VALID,0.112112,VALID,23.4407,VALID,88,VALID,0,
2014-08-26, 00:04:05,VALID,1010.31,VALID,0,INVALID,114.981,VALID,0,VALID,23.4407,VALID,88,VALID,0,
2014-08-26, 00:05:05,VALID,1010.3,VALID,0,INVALID,114.966,VALID,0.112112,VALID,23.4017,VALID,88,VALID,0,
2014-08-26, 00:06:05,VALID,1010.29,VALID,0,INVALID,114.943,VALID,0,VALID,23.4017,VALID,88,VALID,0,
2014-08-26, 00:07:05,VALID,1010.26,VALID,0,INVALID,114.958,VALID,0,VALID,23.4017,VALID,88,VALID,0,
2014-08-26, 00:08:05,VALID,1010.26,VALID,0,INVALID,114.928,VALID,0,VALID,23.3823,VALID,88,VALID,0,
2014-08-26, 00:09:05,VALID,1010.2,VALID,0,INVALID,114.912,VALID,0,VALID,23.3823,VALID,88,VALID,0,
2014-08-26, 00:10:05,VALID,1010.22,VALID,0,INVALID,114.89,VALID,0.112112,VALID,23.3823,VALID,88,VALID,0,
2014-08-26, 00:11:05,VALID,1010.19,VALID,0,INVALID,114.737,VALID,0,VALID,23.4602,VALID,88,VALID,0,
2014-08-26, 00:12:05,VALID,1010.17,VALID,0,INVALID,114.737,VALID,0,VALID,23.4797,VALID,88,VALID,0,
2014-08-26, 00:13:05,VALID,1010.15,VALID,0,INVALID,114.79,VALID,0,VALID,23.4,VALID,88,VALID,0,
2014-08-26, 00:14:05,VALID,1010.15,VALID,0,INVALID,114.89,VALID,0,VALID,23.4017,VALID,88,VALID,0,
2014-08-26, 00:15:05,VALID,1010.13,VALID,0,INVALID,114.882,VALID,0,VALID,23.361,VALID,88,VALID,0,
2014-08-26, 00:16:05,VALID,1010.14,VALID,0,INVALID,114.92,VALID,0,VALID,23.3823,VALID,88,VALID,0,
2014-08-26, 00:17:05,VALID,1010.12,VALID,0,INVALID,114.89,VALID,0.112112,VALID,23.3628,VALID,88,VALID,0,
2014-08-26, 00:18:05,VALID,1010.12,VALID,0,INVALID,114.851,VALID,0,VALID,23.3433,VALID,88,VALID,0,
2014-08-26, 00:19:05,VALID,1010.15,VALID,0,INVALID,114.905,VALID,0,VALID,23.3026,VALID,88,VALID,0,
2014-08-26, 00:20:05,VALID,1010.11,VALID,0,INVALID,114.92,VALID,0.112112,VALID,23.2831,VALID,88,VALID,0,
2014-08-26, 00:21:05,VALID,1010.12,VALID,0,INVALID,114.905,VALID,0,VALID,23.2831,VALID,88,VALID,0,
2014-08-26, 00:22:05,VALID,1010.14,VALID,0,INVALID,114.844,VALID,0,VALID,23.3238,VALID,88,VALID,0,
2014-08-26, 00:23:05,VALID,1010.12,VALID,0,INVALID,114.836,VALID,0.112112,VALID,23.3026,VALID,89,VALID,0,
2014-08-26, 00:24:05,VALID,1010.14,VALID,0,INVALID,114.882,VALID,0,VALID,23.2848,VALID,89,VALID,0,
2014-08-26, 00:25:05,VALID,1010.12,VALID,0,INVALID,114.836,VALID,0,VALID,23.2831,VALID,125,VALID,0,
2014-08-26, 00:26:05,VALID,1010.09,VALID,0,INVALID,114.798,VALID,0,VALID,23.2848,VALID,125,VALID,0,
2014-08-26, 00:27:05,VALID,1010.07,VALID,0,INVALID,114.882,VALID,0,VALID,23.2848,VALID,124,VALID,0,
2014-08-26, 00:28:05,VALID,1010.06,VALID,0,INVALID,114.798,VALID,0,VALID,23.2654,VALID,124,VALID,0,
2014-08-26, 00:29:05,VALID,1010.06,VALID,0,INVALID,114.79,VALID,0,VALID,23.2848,VALID,124,VALID,0,
2014-08-26, 00:30:05,VALID,1010.05,VALID,0,INVALID,114.821,VALID,0,VALID,23.2441,VALID,122,VALID,0,
2014-08-26, 00:31:05,VALID,1010.01,VALID,0,INVALID,114.882,VALID,0,VALID,23.2264,VALID,122,VALID,0,
2014-08-26, 00:32:05,VALID,1010.02,VALID,0,INVALID,114.92,VALID,0,VALID,23.2069,VALID,122,VALID,0,
2014-08-26, 00:33:05,VALID,1010.03,VALID,0,INVALID,114.943,VALID,0,VALID,23.1874,VALID,122,VALID,0,
2014-08-26, 00:34:05,VALID,1010.02,VALID,0,INVALID,114.935,VALID,0,VALID,23.1662,VALID,122,VALID,0,
2014-08-26, 00:35:05,VALID,1010.01,VALID,0,INVALID,114.905,VALID,0,VALID,23.1874,VALID,122,VALID,0,
2014-08-26, 00:36:05,VALID,1010,VALID,0,INVALID,114.935,VALID,0,VALID,23.1485,VALID,122,VALID,0,
2014-08-26, 00:37:05,VALID,1010.01,VALID,0,INVALID,114.874,VALID,0,VALID,23.1272,VALID,122,VALID,0,
2014-08-26, 00:38:05,VALID,1010.01,VALID,0,INVALID,114.867,VALID,0,VALID,23.1272,VALID,122,VALID,0,
2014-08-26, 00:39:05,VALID,1010.01,VALID,0,INVALID,114.851,VALID,0,VALID,23.129,VALID,122,VALID,0,
2014-08-26, 00:40:05,VALID,1010,VALID,0,INVALID,114.844,VALID,0,VALID,23.129,VALID,122,VALID,0,
2014-08-26, 00:41:05,VALID,1010.01,VALID,0,INVALID,114.836,VALID,0,VALID,23.0883,VALID,122,VALID,0,
2014-08-26, 00:42:05,VALID,1010.02,VALID,0,INVALID,114.897,VALID,0,VALID,23.09,VALID,122,VALID,0,
2014-08-26, 00:43:05,VALID,1009.98,VALID,0,INVALID,114.897,VALID,0.112112,VALID,23.09,VALID,122,VALID,0,
2014-08-26, 00:44:05,VALID,1009.99,VALID,0,INVALID,114.874,VALID,0,VALID,23.0705,VALID,122,VALID,0,
2014-08-26, 00:45:05,VALID,1009.98,VALID,0,INVALID,114.859,VALID,0,VALID,23.0493,VALID,122,VALID,0,
2014-08-26, 00:46:05,VALID,1009.98,VALID,0,INVALID,114.798,VALID,0,VALID,23.0688,VALID,122,VALID,0,
2014-08-26, 00:47:05,VALID,1009.96,VALID,0,INVALID,114.783,VALID,0.112112,VALID,23.0688,VALID,122,VALID,0,
2014-08-26, 00:48:05,VALID,1009.97,VALID,0,INVALID,114.752,VALID,0,VALID,23.0883,VALID,122,VALID,0,
2014-08-26, 00:49:05,VALID,1009.96,VALID,0,INVALID,114.684,VALID,0,VALID,23.129,VALID,122,VALID,0,
2014-08-26, 00:50:05,VALID,1009.96,VALID,0,INVALID,114.668,VALID,0,VALID,23.1485,VALID,122,VALID,0,
2014-08-26, 00:51:05,VALID,1009.97,VALID,0,INVALID,114.638,VALID,0.112112,VALID,23.1485,VALID,122,VALID,0,
2014-08-26, 00:52:05,VALID,1009.96,VALID,0,INVALID,114.668,VALID,0,VALID,23.1095,VALID,122,VALID,0,
2014-08-26, 00:53:05,VALID,1009.96,VALID,0,INVALID,114.668,VALID,0,VALID,23.1095,VALID,122,VALID,0,
2014-08-26, 00:54:05,VALID,1009.96,VALID,0,INVALID,114.691,VALID,0,VALID,23.09,VALID,122,VALID,0,
2014-08-26, 00:55:05,VALID,1009.96,VALID,0,INVALID,114.676,VALID,0,VALID,23.09,VALID,122,VALID,0,
2014-08-26, 00:56:05,VALID,1009.96,VALID,0,INVALID,114.699,VALID,0.112112,VALID,23.09,VALID,122,VALID,0,
2014-08-26, 00:57:05,VALID,1009.98,VALID,0,INVALID,114.63,VALID,0,VALID,23.0883,VALID,122,VALID,0,
2014-08-26, 00:58:05,VALID,1009.98,VALID,0,INVALID,114.615,VALID,0,VALID,23.129,VALID,122,VALID,0,
2014-08-26, 00:59:05,VALID,1009.95,VALID,0,INVALID,114.592,VALID,0,VALID,23.129,VALID,122,VALID,0,
2014-08-26, 01:00:05,VALID,1009.93,VALID,0,INVALID,114.585,VALID,0,VALID,23.1077,VALID,122,VALID,0,
2014-08-26, 01:01:05,VALID,1009.93,VALID,0,INVALID,114.6,VALID,0,VALID,23.1077,VALID,122,VALID,0,
2014-08-26, 01:02:05,VALID,1009.94,VALID,0,INVALID,114.577,VALID,0,VALID,23.129,VALID,122,VALID,0,
2014-08-26, 01:03:05,VALID,1009.96,VALID,0,INVALID,114.531,VALID,0.112112,VALID,23.1077,VALID,122,VALID,0,
2014-08-26, 01:04:05,VALID,1009.98,VALID,0,INVALID,114.554,VALID,0.112112,VALID,23.1272,VALID,122,VALID,0,
2014-08-26, 01:05:05,VALID,1009.99,VALID,0,INVALID,114.516,VALID,0,VALID,23.1272,VALID,122,VALID,0,
2014-08-26, 01:06:05,VALID,1010,VALID,0,INVALID,114.501,VALID,0,VALID,23.129,VALID,124,VALID,0,
2014-08-26, 01:07:05,VALID,1009.98,VALID,0,INVALID,114.493,VALID,0,VALID,23.1485,VALID,124,VALID,0,
2014-08-26, 01:08:05,VALID,1009.97,VALID,0,INVALID,114.485,VALID,0.112112,VALID,23.1485,VALID,124,VALID,0,
2014-08-26, 01:09:05,VALID,1009.93,VALID,0,INVALID,114.463,VALID,0.112112,VALID,23.1679,VALID,124,VALID,0,
2014-08-26, 01:10:05,VALID,1009.9,VALID,0,INVALID,114.424,VALID,0.112112,VALID,23.1662,VALID,124,VALID,0,
2014-08-26, 01:11:05,VALID,1009.87,VALID,0,INVALID,114.409,VALID,0,VALID,23.1679,VALID,124,VALID,0,
2014-08-26, 01:12:05,VALID,1009.87,VALID,0,INVALID,114.394,VALID,0,VALID,23.2087,VALID,124,VALID,0,
2014-08-26, 01:13:05,VALID,1009.82,VALID,0,INVALID,114.348,VALID,0,VALID,23.2069,VALID,124,VALID,0,
2014-08-26, 01:14:05,VALID,1009.82,VALID,0,INVALID,114.325,VALID,0,VALID,23.2476,VALID,124,VALID,0,
2014-08-26, 01:15:05,VALID,1009.79,VALID,0,INVALID,114.302,VALID,0,VALID,23.2476,VALID,124,VALID,0,
2014-08-26, 01:16:05,VALID,1009.8,VALID,0,INVALID,114.325,VALID,0,VALID,23.2654,VALID,124,VALID,0,
2014-08-26, 01:17:05,VALID,1009.76,VALID,0,INVALID,114.31,VALID,0,VALID,23.2671,VALID,124,VALID,0,
2014-08-26, 01:18:05,VALID,1009.73,VALID,0,INVALID,114.302,VALID,0,VALID,23.2654,VALID,124,VALID,0,
2014-08-26, 01:19:05,VALID,1009.75,VALID,0,INVALID,114.272,VALID,0,VALID,23.2866,VALID,124,VALID,0,
2014-08-26, 01:20:05,VALID,1009.76,VALID,0,INVALID,114.234,VALID,0,VALID,23.3061,VALID,124,VALID,0,
2014-08-26, 01:21:05,VALID,1009.76,VALID,0,INVALID,114.249,VALID,0,VALID,23.3061,VALID,124,VALID,0,
2014-08-26, 01:22:05,VALID,1009.77,VALID,0,INVALID,114.211,VALID,0,VALID,23.3238,VALID,124,VALID,0,
2014-08-26, 01:23:05,VALID,1009.77,VALID,0,INVALID,114.203,VALID,0,VALID,23.3451,VALID,124,VALID,0,
2014-08-26, 01:24:05,VALID,1009.74,VALID,0,INVALID,114.173,VALID,0,VALID,23.3238,VALID,124,VALID,0,
2014-08-26, 01:25:05,VALID,1009.74,VALID,0,INVALID,114.211,VALID,0,VALID,23.3645,VALID,124,VALID,0,
2014-08-26, 01:26:05,VALID,1009.69,VALID,0,INVALID,114.219,VALID,0.112112,VALID,23.3628,VALID,124,VALID,0,
2014-08-26, 01:27:05,VALID,1009.66,VALID,0,INVALID,114.203,VALID,0.112112,VALID,23.3415,VALID,124,VALID,0,
2014-08-26, 01:28:05,VALID,1009.63,VALID,0,INVALID,114.241,VALID,0.112112,VALID,23.3415,VALID,124,VALID,0,
2014-08-26, 01:29:05,VALID,1009.61,VALID,0,INVALID,114.203,VALID,0,VALID,23.361,VALID,124,VALID,0,
2014-08-26, 01:30:05,VALID,1009.62,VALID,0,INVALID,114.211,VALID,0.112112,VALID,23.361,VALID,124,VALID,0,
2014-08-26, 01:31:05,VALID,1009.61,VALID,0,INVALID,114.241,VALID,0.112112,VALID,23.361,VALID,124,VALID,0,
2014-08-26, 01:32:05,VALID,1009.58,VALID,0,INVALID,114.196,VALID,0,VALID,23.3823,VALID,124,VALID,0,
2014-08-26, 01:33:05,VALID,1009.56,VALID,0,INVALID,114.18,VALID,0.112112,VALID,23.3823,VALID,124,VALID,0,
2014-08-26, 01:34:05,VALID,1009.53,VALID,0,INVALID,114.211,VALID,0,VALID,23.361,VALID,124,VALID,0,
2014-08-26, 01:35:05,VALID,1009.52,VALID,0,INVALID,114.348,VALID,0.112112,VALID,23.3433,VALID,124,VALID,0,
2014-08-26, 01:36:05,VALID,1009.51,VALID,0,INVALID,114.386,VALID,0.112112,VALID,23.3043,VALID,124,VALID,0,
2014-08-26, 01:37:05,VALID,1009.52,VALID,0,INVALID,114.493,VALID,0.112112,VALID,23.2459,VALID,124,VALID,0,
2014-08-26, 01:38:05,VALID,1009.48,VALID,0,INVALID,114.508,VALID,0,VALID,23.2069,VALID,124,VALID,0,
2014-08-26, 01:39:05,VALID,1009.47,VALID,0,INVALID,114.44,VALID,0.112112,VALID,23.1662,VALID,124,VALID,0,
2014-08-26, 01:40:05,VALID,1009.45,VALID,0,INVALID,114.478,VALID,0.112112,VALID,23.1485,VALID,124,VALID,0,
2014-08-26, 01:41:05,VALID,1009.42,VALID,0,INVALID,114.463,VALID,0.112112,VALID,23.1077,VALID,124,VALID,0,
2014-08-26, 01:42:05,VALID,1009.41,VALID,0,INVALID,114.409,VALID,0.112112,VALID,23.1077,VALID,124,VALID,0,
2014-08-26, 01:43:05,VALID,1009.4,VALID,0,INVALID,114.402,VALID,0.112112,VALID,23.0688,VALID,124,VALID,0,
2014-08-26, 01:44:05,VALID,1009.38,VALID,0,INVALID,114.417,VALID,0.112112,VALID,23.09,VALID,124,VALID,0,
2014-08-26, 01:45:05,VALID,1009.37,VALID,0,INVALID,114.409,VALID,0.112112,VALID,23.0298,VALID,124,VALID,0,
2014-08-26, 01:46:05,VALID,1009.35,VALID,0,INVALID,114.44,VALID,0.112112,VALID,23.0103,VALID,124,VALID,0,
2014-08-26, 01:47:05,VALID,1009.35,VALID,0,INVALID,114.379,VALID,0.112112,VALID,22.9909,VALID,124,VALID,0,
2014-08-26, 01:48:05,VALID,1009.33,VALID,0,INVALID,114.325,VALID,0,VALID,22.9909,VALID,124,VALID,0,
2014-08-26, 01:49:05,VALID,1009.32,VALID,0,INVALID,114.28,VALID,0,VALID,22.9909,VALID,124,VALID,0,
2014-08-26, 01:50:05,VALID,1009.29,VALID,0,INVALID,114.264,VALID,0.112112,VALID,23.0121,VALID,124,VALID,0,
2014-08-26, 01:51:05,VALID,1009.32,VALID,0,INVALID,114.257,VALID,0,VALID,23.0121,VALID,124,VALID,0,
2014-08-26, 01:52:05,VALID,1009.34,VALID,0,INVALID,114.257,VALID,0.112112,VALID,22.9714,VALID,124,VALID,0,
2014-08-26, 01:53:05,VALID,1009.33,VALID,0,INVALID,114.302,VALID,0,VALID,22.9714,VALID,124,VALID,0,
2014-08-26, 01:54:05,VALID,1009.35,VALID,0,INVALID,114.302,VALID,0,VALID,22.9519,VALID,124,VALID,0,
2014-08-26, 01:55:05,VALID,1009.37,VALID,0,INVALID,114.302,VALID,0,VALID,22.9324,VALID,124,VALID,0,
2014-08-26, 01:56:05,VALID,1009.38,VALID,0,INVALID,114.264,VALID,0.112112,VALID,22.9536,VALID,124,VALID,0,
2014-08-26, 01:57:05,VALID,1009.38,VALID,0,INVALID,114.28,VALID,0.112112,VALID,22.9129,VALID,124,VALID,0,
2014-08-26, 01:58:05,VALID,1009.38,VALID,0,INVALID,114.264,VALID,0.112112,VALID,22.9147,VALID,124,VALID,0,
2014-08-26, 01:59:05,VALID,1009.35,VALID,0,INVALID,114.241,VALID,0,VALID,22.8935,VALID,124,VALID,0,
2014-08-26, 02:00:05,VALID,1009.39,VALID,0,INVALID,114.188,VALID,0.112112,VALID,22.9147,VALID,124,VALID,0,
2014-08-26, 02:01:05,VALID,1009.36,VALID,0,INVALID,114.188,VALID,0,VALID,22.8935,VALID,124,VALID,0,
2014-08-26, 02:02:05,VALID,1009.33,VALID,0,INVALID,114.173,VALID,0,VALID,22.8935,VALID,124,VALID,0,
2014-08-26, 02:03:05,VALID,1009.36,VALID,0,INVALID,114.158,VALID,0.112112,VALID,22.9342,VALID,124,VALID,0,
2014-08-26, 02:04:05,VALID,1009.33,VALID,0,INVALID,114.112,VALID,0.112112,VALID,22.9342,VALID,124,VALID,0,
2014-08-26, 02:05:05,VALID,1009.34,VALID,0,INVALID,114.127,VALID,0.112112,VALID,22.9342,VALID,124,VALID,0,
2014-08-26, 02:06:05,VALID,1009.34,VALID,0,INVALID,114.173,VALID,0,VALID,22.9147,VALID,124,VALID,0,
2014-08-26, 02:07:05,VALID,1009.33,VALID,0,INVALID,114.15,VALID,0,VALID,22.874,VALID,124,VALID,0,
2014-08-26, 02:08:05,VALID,1009.32,VALID,0,INVALID,114.18,VALID,0.112112,VALID,22.874,VALID,124,VALID,0,
2014-08-26, 02:09:05,VALID,1009.31,VALID,0,INVALID,114.188,VALID,0,VALID,22.8757,VALID,124,VALID,0,
2014-08-26, 02:10:05,VALID,1009.32,VALID,0,INVALID,114.097,VALID,0,VALID,22.8757,VALID,124,VALID,0,
2014-08-26, 02:11:05,VALID,1009.34,VALID,0,INVALID,114.104,VALID,0,VALID,22.8757,VALID,124,VALID,0,
2014-08-26, 02:12:05,VALID,1009.32,VALID,0,INVALID,114.119,VALID,0,VALID,22.8545,VALID,124,VALID,0,
2014-08-26, 02:13:05,VALID,1009.33,VALID,0,INVALID,114.081,VALID,0.112112,VALID,22.8757,VALID,124,VALID,0,
2014-08-26, 02:14:05,VALID,1009.34,VALID,0,INVALID,114.074,VALID,0.112112,VALID,22.8757,VALID,124,VALID,0,
2014-08-26, 02:15:05,VALID,1009.35,VALID,0,INVALID,114.112,VALID,0,VALID,22.8757,VALID,124,VALID,0,
2014-08-26, 02:16:05,VALID,1009.31,VALID,0,INVALID,114.028,VALID,0,VALID,22.8757,VALID,124,VALID,0,
2014-08-26, 02:17:05,VALID,1009.33,VALID,0,INVALID,114.02,VALID,0,VALID,22.8757,VALID,124,VALID,0,
2014-08-26, 02:18:05,VALID,1009.32,VALID,0,INVALID,114.028,VALID,0.112112,VALID,22.8757,VALID,124,VALID,0,
2014-08-26, 02:19:05,VALID,1009.32,VALID,0,INVALID,114.028,VALID,0,VALID,22.8562,VALID,124,VALID,0,
2014-08-26, 02:20:05,VALID,1009.33,VALID,0,INVALID,114.051,VALID,0.112112,VALID,22.8757,VALID,124,VALID,0,
2014-08-26, 02:21:05,VALID,1009.31,VALID,0,INVALID,114.028,VALID,0,VALID,22.8757,VALID,124,VALID,0,
2014-08-26, 02:22:05,VALID,1009.32,VALID,0,INVALID,114.043,VALID,0,VALID,22.8562,VALID,124,VALID,0,
2014-08-26, 02:23:05,VALID,1009.3,VALID,0,INVALID,114.036,VALID,0,VALID,22.8562,VALID,124,VALID,0,
2014-08-26, 02:24:05,VALID,1009.3,VALID,0,INVALID,114.066,VALID,0.112112,VALID,22.8368,VALID,124,VALID,0,
2014-08-26, 02:25:05,VALID,1009.28,VALID,0,INVALID,114.043,VALID,0,VALID,22.835,VALID,124,VALID,0,
2014-08-26, 02:26:05,VALID,1009.3,VALID,0,INVALID,114.074,VALID,0.112112,VALID,22.8368,VALID,124,VALID,0,
2014-08-26, 02:27:05,VALID,1009.28,VALID,0,INVALID,114.043,VALID,0.112112,VALID,22.8368,VALID,124,VALID,0,
2014-08-26, 02:28:05,VALID,1009.26,VALID,0,INVALID,114.02,VALID,0.112112,VALID,22.8368,VALID,124,VALID,0,
2014-08-26, 02:29:05,VALID,1009.24,VALID,0,INVALID,113.952,VALID,0.112112,VALID,22.835,VALID,124,VALID,0,
2014-08-26, 02:30:05,VALID,1009.21,VALID,0,INVALID,113.921,VALID,0.112112,VALID,22.8545,VALID,124,VALID,0,
2014-08-26, 02:31:05,VALID,1009.2,VALID,0,INVALID,113.967,VALID,0.112112,VALID,22.8155,VALID,69,VALID,0,
2014-08-26, 02:32:05,VALID,1009.19,VALID,0,INVALID,113.99,VALID,0,VALID,22.8155,VALID,38,VALID,0,
2014-08-26, 02:33:05,VALID,1009.18,VALID,0,INVALID,113.952,VALID,0.112112,VALID,22.7766,VALID,38,VALID,0,
2014-08-26, 02:34:05,VALID,1009.15,VALID,0,INVALID,113.959,VALID,0.112112,VALID,22.8173,VALID,38,VALID,0,
2014-08-26, 02:35:05,VALID,1009.13,VALID,0,INVALID,113.975,VALID,0.112112,VALID,22.7766,VALID,38,VALID,0,
2014-08-26, 02:36:05,VALID,1009.11,VALID,0,INVALID,113.944,VALID,0.112112,VALID,22.7961,VALID,38,VALID,0,
2014-08-26, 02:37:05,VALID,1009.06,VALID,0,INVALID,113.906,VALID,0.112112,VALID,22.7961,VALID,38,VALID,0,
2014-08-26, 02:38:05,VALID,1009.05,VALID,0,INVALID,113.936,VALID,0,VALID,22.7978,VALID,38,VALID,0,
2014-08-26, 02:39:05,VALID,1009.03,VALID,0,INVALID,113.967,VALID,0,VALID,22.7783,VALID,38,VALID,0,
2014-08-26, 02:40:05,VALID,1009.01,VALID,0,INVALID,113.959,VALID,0.112112,VALID,22.7571,VALID,38,VALID,0,
2014-08-26, 02:41:05,VALID,1008.99,VALID,0,INVALID,113.959,VALID,0,VALID,22.7376,VALID,38,VALID,0,
2014-08-26, 02:42:05,VALID,1008.98,VALID,0,INVALID,113.952,VALID,0.112112,VALID,22.7376,VALID,38,VALID,0,
2014-08-26, 02:43:04,VALID,1008.99,VALID,0,INVALID,113.944,VALID,0,VALID,22.7394,VALID,38,VALID,0,
2014-08-26, 02:44:04,VALID,1008.99,VALID,0,INVALID,113.921,VALID,0.112112,VALID,22.7588,VALID,38,VALID,0,
2014-08-26, 02:45:04,VALID,1009.01,VALID,0,INVALID,113.929,VALID,0,VALID,22.7182,VALID,38,VALID,0,
2014-08-26, 02:46:04,VALID,1009.03,VALID,0,INVALID,113.952,VALID,0.112112,VALID,22.7394,VALID,38,VALID,0,
2014-08-26, 02:47:04,VALID,1009.06,VALID,0,INVALID,113.929,VALID,0.112112,VALID,22.7004,VALID,38,VALID,0,
2014-08-26, 02:48:04,VALID,1009.08,VALID,0,INVALID,113.929,VALID,0.112112,VALID,22.6792,VALID,38,VALID,0,
2014-08-26, 02:49:04,VALID,1009.1,VALID,0,INVALID,113.936,VALID,0.112112,VALID,22.6792,VALID,38,VALID,0,
2014-08-26, 02:50:04,VALID,1009.11,VALID,0,INVALID,113.921,VALID,0.112112,VALID,22.6809,VALID,38,VALID,0,
2014-08-26, 02:51:04,VALID,1009.12,VALID,0,INVALID,113.921,VALID,0.112112,VALID,22.6792,VALID,38,VALID,0,
2014-08-26, 02:52:04,VALID,1009.11,VALID,0,INVALID,113.891,VALID,0.112112,VALID,22.6809,VALID,38,VALID,0,
2014-08-26, 02:53:04,VALID,1009.11,VALID,0,INVALID,113.86,VALID,0,VALID,22.6809,VALID,38,VALID,0,
2014-08-26, 02:54:04,VALID,1009.13,VALID,0,INVALID,113.853,VALID,0.112112,VALID,22.6614,VALID,38,VALID,0,
2014-08-26, 02:55:04,VALID,1009.11,VALID,0,INVALID,113.86,VALID,0.112112,VALID,22.6809,VALID,38,VALID,0,
2014-08-26, 02:56:04,VALID,1009.11,VALID,0,INVALID,113.837,VALID,0.112112,VALID,22.6597,VALID,38,VALID,0,
2014-08-26, 02:57:04,VALID,1009.1,VALID,0,INVALID,113.837,VALID,0.112112,VALID,22.6402,VALID,38,VALID,0,
2014-08-26, 02:58:04,VALID,1009.12,VALID,0,INVALID,113.814,VALID,0.112112,VALID,22.6614,VALID,38,VALID,0,
2014-08-26, 02:59:04,VALID,1009.1,VALID,0,INVALID,113.807,VALID,0.112112,VALID,22.6614,VALID,38,VALID,0,
2014-08-26, 03:00:04,VALID,1009.1,VALID,0,INVALID,113.791,VALID,0.112112,VALID,22.6809,VALID,38,VALID,0,
2014-08-26, 03:01:04,VALID,1009.1,VALID,0,INVALID,113.784,VALID,0.112112,VALID,22.6402,VALID,38,VALID,0,
2014-08-26, 03:02:04,VALID,1009.12,VALID,0,INVALID,113.799,VALID,0.112112,VALID,22.6402,VALID,38,VALID,0,
2014-08-26, 03:03:04,VALID,1009.09,VALID,0,INVALID,113.822,VALID,0.112112,VALID,22.6208,VALID,38,VALID,0,
2014-08-26, 03:04:04,VALID,1009.09,VALID,0,INVALID,113.86,VALID,0.112112,VALID,22.6208,VALID,38,VALID,0,
2014-08-26, 03:05:04,VALID,1009.1,VALID,0,INVALID,113.868,VALID,0.112112,VALID,22.5818,VALID,38,VALID,0,
2014-08-26, 03:06:04,VALID,1009.12,VALID,0,INVALID,113.875,VALID,0.112112,VALID,22.5835,VALID,38,VALID,0,
2014-08-26, 03:07:04,VALID,1009.11,VALID,0,INVALID,113.799,VALID,0,VALID,22.5623,VALID,38,VALID,0,
2014-08-26, 03:08:04,VALID,1009.12,VALID,0,INVALID,113.746,VALID,0.112112,VALID,22.5835,VALID,38,VALID,0,
2014-08-26, 03:09:04,VALID,1009.11,VALID,0,INVALID,113.753,VALID,0.112112,VALID,22.5818,VALID,38,VALID,0,
2014-08-26, 03:10:04,VALID,1009.14,VALID,0,INVALID,113.753,VALID,0.112112,VALID,22.5623,VALID,38,VALID,0,
2014-08-26, 03:11:04,VALID,1009.14,VALID,0,INVALID,113.769,VALID,0.112112,VALID,22.5429,VALID,38,VALID,0,
2014-08-26, 03:12:04,VALID,1009.15,VALID,0,INVALID,113.738,VALID,0,VALID,22.564,VALID,38,VALID,0,
2014-08-26, 03:13:04,VALID,1009.13,VALID,0,INVALID,113.738,VALID,0,VALID,22.5446,VALID,38,VALID,0,
2014-08-26, 03:14:04,VALID,1009.14,VALID,0,INVALID,113.738,VALID,0,VALID,22.5446,VALID,38,VALID,0,
2014-08-26, 03:15:04,VALID,1009.13,VALID,0,INVALID,113.73,VALID,0.112112,VALID,22.5446,VALID,38,VALID,0,
2014-08-26, 03:16:04,VALID,1009.15,VALID,0,INVALID,113.738,VALID,0.112112,VALID,22.5234,VALID,38,VALID,0,
2014-08-26, 03:17:04,VALID,1009.16,VALID,0,INVALID,113.692,VALID,0,VALID,22.5251,VALID,38,VALID,0,
2014-08-26, 03:18:04,VALID,1009.16,VALID,0,INVALID,113.692,VALID,0.112112,VALID,22.5234,VALID,38,VALID,0,
2014-08-26, 03:19:04,VALID,1009.18,VALID,0,INVALID,113.677,VALID,0,VALID,22.5446,VALID,38,VALID,0,
2014-08-26, 03:20:04,VALID,1009.2,VALID,0,INVALID,113.685,VALID,0.112112,VALID,22.5446,VALID,38,VALID,0,
2014-08-26, 03:21:04,VALID,1009.2,VALID,0,INVALID,113.624,VALID,0.112112,VALID,22.5446,VALID,38,VALID,0,
2014-08-26, 03:22:04,VALID,1009.17,VALID,0,INVALID,113.601,VALID,0,VALID,22.5446,VALID,38,VALID,0,
2014-08-26, 03:23:04,VALID,1009.16,VALID,0,INVALID,113.593,VALID,0,VALID,22.5446,VALID,38,VALID,0,
2014-08-26, 03:24:04,VALID,1009.17,VALID,0,INVALID,113.601,VALID,0,VALID,22.5446,VALID,38,VALID,0,
2014-08-26, 03:25:04,VALID,1009.14,VALID,0,INVALID,113.578,VALID,0.112112,VALID,22.564,VALID,38,VALID,0,
2014-08-26, 03:26:04,VALID,1009.16,VALID,0,INVALID,113.555,VALID,0,VALID,22.564,VALID,38,VALID,0,
2014-08-26, 03:27:04,VALID,1009.12,VALID,0,INVALID,113.547,VALID,0,VALID,22.564,VALID,38,VALID,0,
2014-08-26, 03:28:04,VALID,1009.14,VALID,0,INVALID,113.494,VALID,0,VALID,22.5852,VALID,38,VALID,0,
2014-08-26, 03:29:04,VALID,1009.13,VALID,0,INVALID,113.57,VALID,0,VALID,22.5852,VALID,38,VALID,0,
2014-08-26, 03:30:04,VALID,1009.15,VALID,0,INVALID,113.54,VALID,0,VALID,22.564,VALID,38,VALID,0,
2014-08-26, 03:31:04,VALID,1009.15,VALID,0,INVALID,113.547,VALID,0,VALID,22.5658,VALID,38,VALID,0,
2014-08-26, 03:32:04,VALID,1009.16,VALID,0,INVALID,113.547,VALID,0,VALID,22.5852,VALID,38,VALID,0,
2014-08-26, 03:33:04,VALID,1009.14,VALID,0,INVALID,113.486,VALID,0,VALID,22.5852,VALID,38,VALID,0,
2014-08-26, 03:34:04,VALID,1009.17,VALID,0,INVALID,113.486,VALID,0,VALID,22.6047,VALID,38,VALID,0,
2014-08-26, 03:35:04,VALID,1009.17,VALID,0,INVALID,113.464,VALID,0,VALID,22.6047,VALID,38,VALID,0,
2014-08-26, 03:36:04,VALID,1009.18,VALID,0,INVALID,113.464,VALID,0,VALID,22.6047,VALID,38,VALID,0,
2014-08-26, 03:37:04,VALID,1009.18,VALID,0,INVALID,113.471,VALID,0,VALID,22.5852,VALID,38,VALID,0,
2014-08-26, 03:38:04,VALID,1009.18,VALID,0,INVALID,113.486,VALID,0,VALID,22.5852,VALID,38,VALID,0,
2014-08-26, 03:39:04,VALID,1009.21,VALID,0,INVALID,113.494,VALID,0,VALID,22.5852,VALID,38,VALID,0,
2014-08-26, 03:40:04,VALID,1009.24,VALID,0,INVALID,113.509,VALID,0,VALID,22.5658,VALID,38,VALID,0,
2014-08-26, 03:41:04,VALID,1009.25,VALID,0,INVALID,113.502,VALID,0,VALID,22.564,VALID,38,VALID,0,
2014-08-26, 03:42:04,VALID,1009.25,VALID,0,INVALID,113.509,VALID,0.112112,VALID,22.5446,VALID,38,VALID,0,
2014-08-26, 03:43:04,VALID,1009.25,VALID,0,INVALID,113.509,VALID,0,VALID,22.5446,VALID,38,VALID,0,
2014-08-26, 03:44:04,VALID,1009.29,VALID,0,INVALID,113.502,VALID,0,VALID,22.5251,VALID,38,VALID,0,
2014-08-26, 03:45:04,VALID,1009.28,VALID,0,INVALID,113.464,VALID,0,VALID,22.5251,VALID,38,VALID,0,
2014-08-26, 03:46:04,VALID,1009.28,VALID,0,INVALID,113.494,VALID,0,VALID,22.5056,VALID,38,VALID,0,
2014-08-26, 03:47:04,VALID,1009.31,VALID,0,INVALID,113.509,VALID,0.112112,VALID,22.5056,VALID,38,VALID,0,
2014-08-26, 03:48:04,VALID,1009.3,VALID,0,INVALID,113.502,VALID,0,VALID,22.5251,VALID,38,VALID,0,
2014-08-26, 03:49:04,VALID,1009.33,VALID,0,INVALID,113.486,VALID,0,VALID,22.5056,VALID,38,VALID,0,
2014-08-26, 03:50:04,VALID,1009.29,VALID,0,INVALID,113.471,VALID,0,VALID,22.5056,VALID,38,VALID,0,